This demonstration page uses our WeatherBlox Daily Observations layout. Learn more.

Left ArrowRight Arrow

36.19886, -115.1175

Hourly Observations for March 7, 2017

Temp ( °F °C ) Dew Point ( °F °C ) Humidity (%) Winds ( mph kmh ) Pressure ( in mb ) Visibility ( mi km ) Precip ( " mm )
12:53 am 00:53 Clear 44 6.7 14 -10 30 30 N N/A 30.29 1026 10 16 N/A
1:53 am 01:53 Clear 42 5.6 15 -9.4 33 33 WNW 3 6 30.30 1026 10 16 N/A
2:53 am 02:53 Clear 40 4.4 15 -9.4 36 36 NW 6 9 30.30 1026 10 16 N/A
3:53 am 03:53 Clear 39 3.9 16 -8.9 39 39 NNW 5 7 30.31 1027 10 16 N/A
4:53 am 04:53 Clear 40 4.4 17 -8.3 40 40 WNW 3 6 30.32 1027 10 16 N/A
5:53 am 05:53 Clear 39 3.9 18 -7.8 43 43 N N/A 30.35 1028 10 16 N/A
6:53 am 06:53 Sunny 42 5.6 16 -8.9 35 35 N N/A 30.36 1028 10 16 N/A
7:53 am 07:53 Sunny 48 8.9 13 -10.6 24 24 N 5 7 30.37 1029 10 16 N/A
8:53 am 08:53 Sunny 51 10.6 11 -11.7 20 20 N N/A 30.38 1029 10 16 N/A
9:53 am 09:53 Sunny 53 11.7 7 -13.9 15 15 N N/A 30.37 1029 10 16 N/A
10:53 am 10:53 Sunny 55 12.8 6 -14.4 14 14 N N/A 30.36 1028 10 16 N/A
11:53 am 11:53 Sunny 58 14.4 5 -15 12 12 SSE 6 9 30.34 1027 10 16 N/A
12:53 pm 12:53 Sunny 61 16.1 6 -14.4 11 11 SSE 5 7 30.29 1026 10 16 N/A
1:53 pm 13:53 Sunny 61 16.1 7 -13.9 11 11 VRB 3 6 30.27 1025 10 16 N/A
2:53 pm 14:53 Sunny 63 17.2 7 -13.9 11 11 N N/A 30.25 1024 10 16 N/A
3:53 pm 15:53 Sunny 66 18.9 10 -12.2 11 11 ENE 5 7 30.24 1024 10 16 N/A
4:53 pm 16:53 Sunny 63 17.2 12 -11.1 13 13 N N/A 30.23 1024 10 16 N/A
5:53 pm 17:53 Clear 61 16.1 13 -10.6 15 15 E 3 6 30.24 1024 10 16 N/A
6:53 pm 18:53 Clear 61 16.1 15 -9.4 17 17 N N/A 30.24 1024 10 16 N/A
7:53 pm 19:53 Clear 58 14.4 18 -7.8 21 21 NW 5 7 30.24 1024 10 16 N/A
8:53 pm 20:53 Clear 56 13.3 21 -6.1 26 26 WNW 5 7 30.25 1024 10 16 N/A
9:53 pm 21:53 Clear 55 12.8 22 -5.6 28 28 WNW 7 11 30.25 1025 10 16 N/A
10:53 pm 22:53 Clear 53 11.7 23 -5 31 31 N 6 9 30.27 1025 10 16 N/A
11:53 pm 23:53 Clear 52 11.1 23 -5 32 32 N N/A 30.26 1025 10 16 N/A

Powered by AerisWeather